Wind_Speed
14 13 13 12 11 10 10 9 9 8 8 9 11 13 13 13 14 13 14 14 15 16 17 17 17 18 18 19 19 20 20 20 21 22 23 23 24 25 26 26 27 27 27
15 14 14 13 11 10 10 10 9 9 9 10 11 12 13 14 14 15 15 15 16 17 18 18 19 19 19 20 20 20 21 21 22 23 24 24 25 26 26 27 28 28 29
15 15 14 14 12 11 11 10 10 11 11 11 12 13 13 14 15 16 16 16 17 18 19 19 20 20 20 21 21 22 22 23 23 24 25 26 27 27 27 29 29 29 30
16 16 15 14 13 12 12 11 12 12 12 13 13 14 15 16 17 17 17 18 19 19 20 21 21 21 21 22 23 23 24 24 25 26 27 27 28 28 29 29 29 29 29
17 17 16 15 14 14 14 13 14 14 14 14 14 15 16 17 17 18 19 20 20 21 21 21 21 22 23 24 24 24 24 25 26 27 28 29 29 29 29 29 29 29 29
18 18 18 17 16 16 16 15 16 15 15 15 15 17 18 18 18 20 20 20 20 21 22 22 23 23 24 25 25 25 26 27 27 28 28 29 30 29 29 29 29 30 30
19 19 19 18 18 18 17 17 17 17 17 17 18 18 18 18 19 20 20 20 21 21 22 23 24 25 25 26 26 27 27 27 28 29 29 29 29 29 29 30 31 31 32
21 20 20 20 20 19 19 19 19 19 19 19 19 19 20 20 20 21 21 22 22 23 24 24 25 26 27 27 27 28 28 28 28 30 30 30 29 30 30 31 31 32 32
22 22 22 22 22 22 21 21 20 20 20 20 20 21 21 22 22 23 23 24 24 24 25 26 27 27 28 28 28 29 29 30 31 30 30 30 30 30 31 32 32 33 33
24 24 24 24 24 24 23 22 22 21 21 21 22 22 23 24 24 25 25 25 26 26 26 27 27 28 28 29 30 30 31 31 31 30 30 30 30 31 31 32 33 33 34
26 26 26 26 26 26 25 25 24 23 23 24 24 24 24 24 25 26 26 27 27 27 28 28 29 29 29 30 31 31 32 32 32 32 33 32 32 32 33 33 33 33 33
29 29 29 29 28 28 27 26 26 26 26 26 26 26 25 25 26 26 27 27 28 29 29 29 30 31 31 32 33 33 33 33 33 33 33 33 33 33 34 34 34 34 34
31 31 31 31 31 30 29 29 29 29 28 28 28 28 28 27 28 28 29 29 30 31 31 31 32 32 32 32 33 33 33 34 34 34 34 33 34 34 34 34 34 34 35
33 33 32 32 32 31 31 31 31 31 31 30 30 31 31 30 30 31 31 32 32 32 33 33 33 33 33 32 33 33 34 34 34 34 34 34 34 34 34 34 34 35 34
34 33 33 33 33 33 33 33 33 33 33 33 33 34 33 33 33 33 34 34 34 34 34 34 34 34 34 34 35 35 35 35 35 35 34 34 34 34 34 35 35 34 34
36 35 34 34 34 34 34 34 34 34 35 35 35 35 35 35 35 36 36 36 36 36 36 36 36 36 36 36 36 37 36 36 35 35 35 34 35 35 34 34 34 34 34
36 36 35 35 35 35 35 35 35 35 36 36 35 36 36 37 37 37 37 37 37 38 38 38 38 38 38 38 37 37 37 36 35 35 35 34 34 33 34 34 34 34 34
37 37 37 37 37 37 37 36 36 36 37 37 37 38 38 38 39 39 39 39 39 39 39 39 39 39 38 38 37 37 36 35 35 34 33 33 33 34 34 34 34 34 33
38 38 37 37 37 38 38 38 38 38 38 38 38 39 39 39 39 39 39 39 40 40 40 39 39 38 38 37 37 36 35 35 34 33 33 33 33 34 34 34 35 34 33
39 39 39 38 39 39 39 39 39 39 39 39 39 40 40 40 39 39 39 39 39 39 39 38 37 36 36 36 35 35 34 32 32 32 32 33 34 34 34 33 33 33 33
39 39 39 39 39 39 39 39 39 39 40 40 40 40 40 39 39 39 38 38 38 37 36 36 35 35 34 34 33 32 32 31 32 32 33 33 34 34 34 33 33 33 32
39 39 39 39 39 39 40 40 40 40 40 40 40 39 39 39 38 38 37 36 36 36 36 35 34 33 33 32 32 32 32 32 32 33 33 33 33 33 33 33 33 33 32
39 39 39 39 40 40 39 39 40 40 39 39 39 38 37 37 37 36 36 36 36 35 34 33 33 32 32 32 32 32 33 33 32 31 32 32 32 32 31 31 31 31 31
38 38 38 38 38 38 38 38 38 37 37 36 37 36 36 36 36 35 36 36 35 34 33 33 33 33 33 33 33 33 33 33 32 31 32 32 31 31 31 31 31 30 30
36 36 36 37 37 37 36 36 36 36 36 36 36 36 36 35 35 35 35 34 33 32 32 32 32 33 33 33 33 33 32 32 32 32 31 31 31 30 30 30 30 29 29
35 35 36 36 36 36 35 35 35 34 34 34 34 34 34 34 34 34 33 33 32 32 32 32 33 34 34 34 33 32 31 31 31 30 30 30 30 30 30 30 30 30 30
Wind_Direction
331 332 329 321 313 307 297 289 287 281 274 268 264 262 260 261 264 266 270 273 273 276 277 277 278 282 284 285 285 285 284 284 284 285 284 285 287 289 289 289 289 288 287
329 329 329 327 319 310 306 297 291 285 280 276 273 270 264 263 265 267 271 275 277 277 278 280 281 282 283 285 285 285 286 288 287 287 287 287 289 290 289 290 290 289 289
328 327 327 326 321 315 309 300 295 290 286 284 280 273 270 270 270 273 275 276 277 278 279 280 282 282 283 285 285 285 286 287 288 289 288 288 288 289 289 291 291 292 291
328 327 325 322 319 314 307 299 295 291 289 289 284 278 276 273 272 275 278 279 279 281 281 283 283 282 283 284 285 286 287 288 288 288 289 290 290 290 292 292 291 292 292
327 326 325 321 318 311 303 298 295 293 290 290 286 283 280 277 276 279 280 280 281 282 283 283 284 284 284 284 286 288 289 288 288 289 290 291 292 291 291 292 291 291 291
324 322 322 319 315 312 303 297 295 294 292 290 292 288 283 280 280 280 283 284 285 285 285 285 285 285 286 286 287 288 289 288 289 290 291 291 290 290 290 292 292 292 291
319 319 319 318 315 312 307 299 296 294 293 290 291 292 289 287 285 284 285 285 287 287 287 288 288 286 287 288 288 290 292 291 291 291 292 291 290 289 289 291 291 291 292
312 313 314 315 314 311 307 303 300 295 292 293 293 292 292 289 287 285 285 286 286 287 287 288 288 288 287 288 290 291 292 293 292 292 291 291 291 291 291 291 291 293 294
307 308 309 310 311 310 309 306 302 297 293 292 292 294 295 294 291 288 286 286 287 288 288 289 289 289 289 289 291 292 293 292 292 292 291 291 290 290 291 291 292 293 293
302 303 302 303 304 304 304 304 302 300 297 294 293 292 293 293 292 291 289 288 287 288 289 290 290 290 290 290 291 292 291 291 291 292 291 291 290 290 292 292 291 292 294
298 299 300 300 300 300 300 298 296 297 296 295 294 293 293 292 291 289 289 288 287 287 288 289 289 290 290 290 291 291 291 291 291 291 291 291 290 290 292 292 292 293 293
293 295 296 297 298 298 298 296 295 295 295 294 293 293 293 292 291 291 290 290 288 288 289 289 290 290 290 289 290 290 290 290 290 291 290 290 291 291 291 291 291 293 293
290 292 293 293 295 296 294 293 292 293 293 293 291 291 291 291 292 292 291 290 290 290 290 291 291 291 291 290 290 290 291 290 290 290 289 289 290 290 290 290 291 293 294
287 289 290 291 292 293 292 291 290 291 291 291 291 290 290 290 290 290 290 290 290 291 291 292 292 292 291 291 291 291 290 289 289 289 288 288 289 290 290 290 292 294 295
286 288 288 289 290 291 291 290 290 289 289 290 290 290 290 290 290 290 290 290 290 291 291 292 291 291 290 290 290 290 290 289 289 289 288 288 288 289 289 291 293 293 294
284 285 286 287 288 289 290 290 290 290 289 289 289 289 290 290 291 291 291 290 290 290 291 291 291 291 290 289 290 290 290 289 288 288 287 287 287 289 291 293 293 292 292
282 283 284 285 286 287 289 290 289 288 288 289 289 289 289 290 290 291 291 291 290 289 289 290 291 290 289 289 289 290 290 288 286 287 287 287 288 289 290 290 290 290 291
282 282 282 283 284 286 288 289 289 289 288 287 287 288 288 289 290 290 290 290 289 289 288 288 289 289 289 288 289 289 288 287 286 285 286 287 288 289 289 288 289 290 291
280 281 282 282 284 286 288 288 289 289 288 287 287 288 288 289 289 289 289 288 289 288 287 287 287 288 289 288 288 287 286 285 285 285 286 288 288 289 287 288 289 290 291
280 281 282 283 284 286 287 288 288 288 288 288 288 288 288 288 289 289 289 289 288 287 287 287 287 288 288 287 286 286 286 285 285 287 288 288 287 288 288 288 289 290 290
279 280 282 283 285 286 287 287 287 287 287 288 288 288 289 289 289 289 289 288 287 287 286 287 287 287 286 285 285 285 285 285 286 288 288 288 288 288 288 287 288 290 291
277 279 282 284 286 286 286 286 287 287 287 288 288 289 290 289 288 288 288 287 287 287 287 287 285 285 285 284 284 285 285 286 287 288 287 287 287 287 287 287 288 289 289
278 280 282 284 285 287 287 286 286 287 287 287 288 289 290 290 289 288 289 288 287 287 287 286 285 284 285 285 285 286 287 287 288 288 288 288 288 287 288 288 288 289 290
279 280 281 283 285 286 287 287 287 287 288 288 288 289 289 290 290 290 290 290 287 287 287 286 285 285 286 287 287 287 287 286 286 286 286 287 287 287 287 287 287 287 287
279 280 281 283 284 286 287 287 287 288 287 288 288 288 288 289 289 290 290 289 287 286 285 285 285 285 285 287 288 287 286 286 285 285 285 285 286 286 286 287 287 286 287
280 282 283 284 285 286 287 287 287 288 289 288 287 288 289 288 289 290 289 288 287 286 286 287 286 286 286 287 286 286 286 286 286 286 286 286 286 286 286 286 286 287 288
Height
5889 5887 5885 5884 5882 5881 5881 5881 5881 5881 5881 5882 5882 5883 5884 5884 5885 5886 5886 5886 5886 5886 5886 5886 5886 5885 5885 5885 5884 5884 5883 5882 5882 5881 5879 5879 5879 5878 5876 5875 5873 5872 5871
5888 5886 5884 5883 5881 5880 5879 5879 5879 5879 5879 5879 5880 5880 5880 5881 5882 5882 5882 5882 5883 5882 5882 5882 5881 5881 5880 5880 5879 5878 5878 5877 5876 5875 5874 5873 5872 5871 5869 5868 5867 5865 5864
5887 5885 5884 5882 5880 5879 5878 5878 5877 5877 5877 5877 5877 5877 5877 5878 5878 5878 5878 5878 5878 5878 5877 5877 5876 5876 5875 5875 5874 5873 5872 5871 5871 5869 5868 5867 5866 5864 5863 5861 5860 5858 5857
5886 5884 5882 5881 5879 5878 5877 5876 5875 5875 5874 5874 5874 5874 5874 5874 5874 5874 5874 5874 5874 5873 5873 5872 5871 5870 5870 5869 5868 5867 5866 5865 5864 5863 5862 5860 5859 5857 5856 5854 5852 5850 5849
5884 5882 5881 5879 5877 5876 5875 5874 5873 5872 5871 5871 5870 5870 5870 5869 5869 5869 5869 5869 5869 5868 5867 5867 5866 5865 5864 5863 5862 5861 5860 5859 5857 5856 5855 5853 5852 5849 5848 5846 5845 5843 5841
5882 5880 5879 5877 5875 5873 5872 5871 5869 5869 5868 5867 5867 5866 5866 5865 5865 5865 5864 5864 5863 5862 5862 5861 5860 5859 5858 5857 5856 5855 5853 5852 5851 5849 5848 5846 5844 5842 5840 5839 5837 5835 5834
5880 5878 5876 5874 5872 5871 5869 5868 5867 5866 5864 5863 5863 5862 5861 5860 5860 5860 5859 5858 5858 5857 5856 5855 5854 5853 5852 5851 5849 5848 5846 5844 5843 5842 5840 5838 5836 5834 5833 5831 5829 5828 5826
5877 5875 5873 5872 5870 5868 5866 5864 5863 5862 5861 5859 5858 5857 5857 5856 5855 5854 5854 5853 5852 5851 5850 5849 5848 5847 5845 5844 5842 5841 5839 5837 5836 5834 5832 5830 5829 5827 5825 5824 5822 5819 5817
5873 5871 5869 5868 5866 5864 5862 5861 5859 5857 5856 5855 5854 5853 5852 5851 5849 5849 5848 5847 5846 5845 5844 5843 5841 5840 5838 5837 5835 5833 5832 5830 5828 5826 5824 5822 5821 5819 5817 5815 5813 5811 5808
5868 5867 5865 5863 5861 5860 5858 5856 5855 5853 5852 5850 5849 5848 5846 5845 5844 5842 5841 5840 5839 5838 5837 5836 5834 5832 5831 5829 5827 5826 5824 5822 5820 5818 5816 5814 5812 5810 5808 5807 5805 5802 5800
5863 5861 5860 5858 5856 5854 5853 5851 5850 5848 5847 5845 5844 5842 5841 5839 5838 5836 5834 5833 5832 5831 5830 5828 5827 5825 5823 5821 5819 5818 5816 5814 5812 5810 5807 5805 5804 5802 5800 5798 5795 5793 5791
5857 5855 5854 5852 5850 5848 5847 5845 5844 5842 5841 5839 5838 5836 5834 5833 5831 5829 5827 5826 5825 5824 5822 5821 5819 5817 5815 5813 5811 5809 5807 5804 5802 5800 5798 5796 5795 5793 5791 5788 5786 5784 5781
5850 5848 5847 5845 5843 5842 5840 5838 5837 5835 5834 5832 5830 5829 5827 5826 5824 5822 5820 5819 5817 5816 5814 5812 5810 5808 5806 5804 5802 5800 5797 5795 5793 5791 5789 5787 5786 5784 5782 5779 5777 5774 5772
5842 5840 5838 5837 5836 5834 5832 5831 5829 5827 5826 5824 5822 5821 5819 5818 5816 5815 5812 5811 5809 5807 5805 5803 5801 5799 5797 5795 5793 5790 5788 5786 5784 5782 5780 5778 5776 5774 5772 5770 5767 5765 5762
5833 5832 5830 5829 5827 5826 5824 5822 5821 5819 5817 5816 5814 5812 5811 5809 5807 5806 5804 5802 5800 5798 5796 5794 5792 5790 5788 5785 5783 5781 5779 5776 5774 5772 5770 5768 5766 5764 5762 5760 5758 5755 5753
5824 5823 5821 5820 5819 5817 5816 5814 5812 5810 5809 5807 5805 5803 5802 5800 5798 5796 5794 5792 5790 5788 5786 5784 5782 5780 5778 5776 5773 5771 5769 5767 5764 5762 5760 5758 5756 5754 5752 5750 5748 5746 5743
5815 5813 5812 5811 5810 5808 5806 5805 5803 5802 5800 5798 5796 5794 5792 5790 5788 5786 5784 5782 5780 5778 5776 5774 5772 5769 5767 5765 5763 5761 5759 5756 5754 5752 5750 5748 5746 5744 5742 5740 5738 5736 5733
5805 5804 5802 5801 5800 5798 5797 5795 5793 5792 5790 5788 5786 5784 5782 5780 5778 5775 5773 5771 5769 5767 5765 5763 5761 5759 5756 5754 5752 5750 5748 5746 5744 5742 5740 5738 5736 5734 5732 5730 5728 5726 5724
5795 5794 5793 5791 5790 5788 5787 5785 5783 5781 5779 5778 5776 5774 5771 5769 5767 5765 5762 5760 5758 5756 5754 5752 5750 5747 5745 5743 5742 5739 5737 5736 5734 5732 5730 5728 5726 5724 5722 5720 5718 5716 5714
5785 5783 5782 5781 5780 5778 5776 5774 5773 5771 5769 5767 5765 5763 5760 5758 5756 5754 5751 5749 5747 5745 5743 5741 5738 5736 5735 5733 5731 5729 5727 5725 5724 5722 5720 5718 5716 5714 5712 5710 5708 5706 5704
5774 5773 5772 5770 5769 5767 5766 5764 5762 5760 5758 5756 5754 5751 5749 5747 5745 5743 5740 5738 5736 5734 5731 5730 5728 5726 5724 5722 5720 5719 5717 5715 5714 5712 5710 5708 5706 5704 5702 5700 5698 5696 5694
5763 5762 5761 5760 5758 5756 5754 5753 5751 5749 5747 5745 5742 5740 5738 5735 5733 5731 5729 5727 5725 5723 5721 5719 5717 5716 5714 5712 5711 5709 5707 5705 5703 5702 5700 5698 5696 5694 5692 5690 5688 5686 5684
5752 5751 5750 5749 5747 5745 5743 5741 5740 5738 5736 5733 5731 5729 5727 5724 5722 5720 5718 5716 5714 5713 5711 5709 5708 5706 5704 5702 5701 5699 5697 5695 5693 5692 5690 5688 5686 5684 5682 5680 5679 5677 5675
5742 5740 5739 5738 5736 5734 5732 5731 5729 5727 5724 5722 5720 5718 5716 5714 5712 5710 5708 5706 5704 5703 5701 5699 5698 5696 5694 5692 5691 5689 5687 5685 5683 5681 5680 5678 5676 5674 5673 5671 5669 5668 5666
5731 5730 5728 5727 5725 5724 5722 5720 5718 5716 5714 5712 5710 5708 5706 5704 5702 5700 5698 5696 5694 5693 5691 5689 5688 5686 5684 5682 5680 5678 5676 5675 5673 5671 5670 5668 5666 5665 5663 5661 5660 5658 5656
5721 5719 5718 5717 5715 5713 5712 5710 5708 5706 5704 5702 5700 5698 5696 5694 5692 5690 5688 5686 5685 5683 5681 5679 5678 5676 5674 5672 5670 5668 5666 5665 5663 5661 5660 5658 5657 5655 5653 5652 5650 5649 5647